{"data":{"norad_id":67314,"intl_designator":"2026-002K","name":"STARLINK-36476","alt_names":[],"object_type":"PAYLOAD","status":"ACTIVE","operator":null,"country":"US","launch_date":"2026-01-04","launch_site_code":"AFETR","launch_vehicle":null,"mission":null,"orbit_class":"UNKNOWN","rcs_meters":null,"size_class":null,"mass_kg":null,"dimensions":null,"purposes":["comms"],"wikipedia_slug":null,"has_3d_model":false,"image_url":null,"decayed_at":null,"tle_current":{"epoch":"2026-05-25T00:43:25.118112Z","epoch_age_seconds":66290,"freshness":"FRESH","line1":"1 67314U 26002K   26145.03015183  .00013103  00000+0  48450-3 0  9991","line2":"2 67314  43.0020 254.1801 0003931 265.2226  94.8177 15.27598606 22744","mean_motion":15.27598606,"eccentricity":0.0003931,"inclination_deg":43.002,"raan_deg":254.1801,"arg_perigee_deg":265.2226,"mean_anomaly_deg":94.8177,"bstar":0.0004845,"rev_number":2274,"period_min":94.265600553972,"perigee_km":480.29627319389,"apogee_km":485.69049390144,"semimajor_km":6861.1303835477,"source":"CELESTRAK","updated_at":"2026-05-25T13:38:21.516491Z"}}}